Year,Month,Day,Hour,Minute,Value (Times are PST for temperature in C)
2011,08,22,00,00,20.80
2011,08,22,00,01,20.80
2011,08,22,00,02,20.80
2011,08,22,00,03,20.80
2011,08,22,00,04,20.70
2011,08,22,00,05,20.70
2011,08,22,00,06,20.70
2011,08,22,00,07,20.70
2011,08,22,00,08,20.70
2011,08,22,00,09,20.70
2011,08,22,00,10,20.80
2011,08,22,00,11,20.80
2011,08,22,00,12,20.80
2011,08,22,00,13,20.80
2011,08,22,00,14,20.80
2011,08,22,00,15,20.80
2011,08,22,00,16,20.70
2011,08,22,00,17,20.70
2011,08,22,00,18,20.80
2011,08,22,00,19,20.80
2011,08,22,00,20,20.80
2011,08,22,00,21,20.80
2011,08,22,00,22,20.90
2011,08,22,00,23,20.90
2011,08,22,00,24,20.80
2011,08,22,00,25,20.80
2011,08,22,00,26,20.80
2011,08,22,00,27,20.80
2011,08,22,00,28,20.80
2011,08,22,00,29,20.80
2011,08,22,00,30,20.80
2011,08,22,00,31,20.80
2011,08,22,00,32,20.90
2011,08,22,00,33,20.90
2011,08,22,00,34,20.90
2011,08,22,00,35,20.90
2011,08,22,00,36,20.90
2011,08,22,00,37,20.80
2011,08,22,00,38,20.80
2011,08,22,00,39,20.80
2011,08,22,00,40,20.80
2011,08,22,00,41,20.80
2011,08,22,00,42,20.80
2011,08,22,00,43,20.80
2011,08,22,00,44,20.80
2011,08,22,00,45,20.80
2011,08,22,00,46,20.70
2011,08,22,00,47,20.70
2011,08,22,00,48,20.70
2011,08,22,00,49,20.70
2011,08,22,00,50,20.70
2011,08,22,00,51,20.70
2011,08,22,00,52,20.70
2011,08,22,00,53,20.70
2011,08,22,00,54,20.70
2011,08,22,00,55,20.80
2011,08,22,00,56,20.80
2011,08,22,00,57,20.80
2011,08,22,00,58,20.80
2011,08,22,00,59,20.80
2011,08,22,01,00,20.80
2011,08,22,01,01,20.80
2011,08,22,01,02,20.80
2011,08,22,01,03,20.80
2011,08,22,01,04,20.80
2011,08,22,01,05,20.90
2011,08,22,01,06,20.90
2011,08,22,01,07,20.90
2011,08,22,01,08,20.90
2011,08,22,01,09,20.90
2011,08,22,01,10,20.90
2011,08,22,01,11,21.00
2011,08,22,01,12,21.00
2011,08,22,01,13,21.10
2011,08,22,01,14,21.10
2011,08,22,01,15,21.10
2011,08,22,01,16,21.10
2011,08,22,01,17,21.20
2011,08,22,01,18,21.20
2011,08,22,01,19,21.20
2011,08,22,01,20,21.20
2011,08,22,01,21,21.20
2011,08,22,01,22,21.20
2011,08,22,01,23,21.30
2011,08,22,01,24,21.30
2011,08,22,01,25,21.30
2011,08,22,01,26,21.30
2011,08,22,01,27,21.30
2011,08,22,01,28,21.30
2011,08,22,01,29,21.30
2011,08,22,01,30,21.30
2011,08,22,01,31,21.30
2011,08,22,01,32,21.30
2011,08,22,01,33,21.30
2011,08,22,01,34,21.30
2011,08,22,01,35,21.30
2011,08,22,01,36,21.30
2011,08,22,01,37,21.30
2011,08,22,01,38,21.30
2011,08,22,01,39,21.20
2011,08,22,01,40,21.20
2011,08,22,01,41,21.10
2011,08,22,01,42,21.10
2011,08,22,01,43,21.10
2011,08,22,01,44,21.10
2011,08,22,01,45,21.10
2011,08,22,01,46,21.10
2011,08,22,01,47,21.00
2011,08,22,01,48,21.00
2011,08,22,01,49,20.90
2011,08,22,01,50,20.90
2011,08,22,01,51,20.90
2011,08,22,01,52,20.90
2011,08,22,01,53,20.90
2011,08,22,01,54,20.80
2011,08,22,01,55,20.80
2011,08,22,01,56,20.80
2011,08,22,01,57,20.80
2011,08,22,01,58,20.80
2011,08,22,01,59,20.70
2011,08,22,02,00,20.70
2011,08,22,02,01,20.60
2011,08,22,02,02,20.60
2011,08,22,02,03,20.50
2011,08,22,02,04,20.50
2011,08,22,02,05,20.50
2011,08,22,02,06,20.50
2011,08,22,02,07,20.60
2011,08,22,02,08,20.60
2011,08,22,02,09,20.70
2011,08,22,02,10,20.70
2011,08,22,02,11,20.80
2011,08,22,02,12,20.80
2011,08,22,02,13,20.80
2011,08,22,02,14,20.90
2011,08,22,02,15,20.90
2011,08,22,02,16,20.90
2011,08,22,02,17,20.90
2011,08,22,02,18,20.90
2011,08,22,02,19,20.90
2011,08,22,02,20,20.90
2011,08,22,02,21,20.90
2011,08,22,02,22,20.90
2011,08,22,02,23,20.90
2011,08,22,02,24,20.90
2011,08,22,02,25,20.80
2011,08,22,02,26,20.80
2011,08,22,02,27,20.80
2011,08,22,02,28,20.80
2011,08,22,02,29,20.80
2011,08,22,02,30,20.80
2011,08,22,02,31,20.80
2011,08,22,02,32,20.80
2011,08,22,02,33,20.70
2011,08,22,02,34,20.80
2011,08,22,02,35,20.80
2011,08,22,02,36,20.70
2011,08,22,02,37,20.70
2011,08,22,02,38,20.70
2011,08,22,02,39,20.70
2011,08,22,02,40,20.70
2011,08,22,02,41,20.70
2011,08,22,02,42,20.70
2011,08,22,02,43,20.60
2011,08,22,02,44,20.60
2011,08,22,02,45,20.60
2011,08,22,02,46,20.60
2011,08,22,02,47,20.60
2011,08,22,02,48,20.60
2011,08,22,02,49,20.60
2011,08,22,02,50,20.60
2011,08,22,02,51,20.60
2011,08,22,02,52,20.60
2011,08,22,02,53,20.50
2011,08,22,02,54,20.50
2011,08,22,02,55,20.50
2011,08,22,02,56,20.40
2011,08,22,02,57,20.40
2011,08,22,02,58,20.40
2011,08,22,02,59,20.40
2011,08,22,03,00,20.40
2011,08,22,03,01,20.40
2011,08,22,03,02,20.40
2011,08,22,03,03,20.40
2011,08,22,03,04,20.30
2011,08,22,03,05,20.30
2011,08,22,03,06,20.30
2011,08,22,03,07,20.30
2011,08,22,03,08,20.30
2011,08,22,03,09,20.30
2011,08,22,03,10,20.30
2011,08,22,03,11,20.30
2011,08,22,03,12,20.30
2011,08,22,03,13,20.30
2011,08,22,03,14,20.30
2011,08,22,03,15,20.30
2011,08,22,03,16,20.30
2011,08,22,03,17,20.30
2011,08,22,03,18,20.30
2011,08,22,03,19,20.30
2011,08,22,03,20,20.30
2011,08,22,03,21,20.30
2011,08,22,03,22,20.30
2011,08,22,03,23,20.30
2011,08,22,03,24,20.30
2011,08,22,03,25,20.30
2011,08,22,03,26,20.30
2011,08,22,03,27,20.30
2011,08,22,03,28,20.30
2011,08,22,03,29,20.30
2011,08,22,03,30,20.30
2011,08,22,03,31,20.30
2011,08,22,03,32,20.30
2011,08,22,03,33,20.30
2011,08,22,03,34,20.30
2011,08,22,03,35,20.20
2011,08,22,03,36,20.20
2011,08,22,03,37,20.20
2011,08,22,03,38,20.20
2011,08,22,03,39,20.20
2011,08,22,03,40,20.20
2011,08,22,03,41,20.20
2011,08,22,03,42,20.20
2011,08,22,03,43,20.20
2011,08,22,03,44,20.20
2011,08,22,03,45,20.20
2011,08,22,03,46,20.20
2011,08,22,03,47,20.20
2011,08,22,03,48,20.20
2011,08,22,03,49,20.20
2011,08,22,03,50,20.20
2011,08,22,03,51,20.20
2011,08,22,03,52,20.20
2011,08,22,03,53,20.20
2011,08,22,03,54,20.20
2011,08,22,03,55,20.20
2011,08,22,03,56,20.20
2011,08,22,03,57,20.20
2011,08,22,03,58,20.20
2011,08,22,03,59,20.20
2011,08,22,04,00,20.20
2011,08,22,04,01,20.20
2011,08,22,04,02,20.20
2011,08,22,04,03,20.20
2011,08,22,04,04,20.20
2011,08,22,04,05,20.20
2011,08,22,04,06,20.20
2011,08,22,04,07,20.20
2011,08,22,04,08,20.20
2011,08,22,04,09,20.20
2011,08,22,04,10,20.20
2011,08,22,04,11,20.20
2011,08,22,04,12,20.20
2011,08,22,04,13,20.20
2011,08,22,04,14,20.20
2011,08,22,04,15,20.20
2011,08,22,04,16,20.20
2011,08,22,04,17,20.20
2011,08,22,04,18,20.20
2011,08,22,04,19,20.20
2011,08,22,04,20,20.20
2011,08,22,04,21,20.20
2011,08,22,04,22,20.20
2011,08,22,04,23,20.20
2011,08,22,04,24,20.20
2011,08,22,04,25,20.20
2011,08,22,04,26,20.20
2011,08,22,04,27,20.20
2011,08,22,04,28,20.20
2011,08,22,04,29,20.20
2011,08,22,04,30,20.20
2011,08,22,04,31,20.20
2011,08,22,04,32,20.20
2011,08,22,04,33,20.20
2011,08,22,04,34,20.20
2011,08,22,04,35,20.20
2011,08,22,04,36,20.20
2011,08,22,04,37,20.20
2011,08,22,04,38,20.20
2011,08,22,04,39,20.10
2011,08,22,04,40,20.10
2011,08,22,04,41,20.10
2011,08,22,04,42,20.00
2011,08,22,04,43,20.00
2011,08,22,04,44,20.00
2011,08,22,04,45,19.90
2011,08,22,04,46,19.90
2011,08,22,04,47,19.90
2011,08,22,04,48,19.80
2011,08,22,04,49,19.80
2011,08,22,04,50,19.80
2011,08,22,04,51,19.80
2011,08,22,04,52,19.80
2011,08,22,04,53,19.80
2011,08,22,04,54,19.80
2011,08,22,04,55,19.80
2011,08,22,04,56,19.80
2011,08,22,04,57,19.80
2011,08,22,04,58,19.80
2011,08,22,04,59,19.80
2011,08,22,05,00,19.80
2011,08,22,05,01,19.80
2011,08,22,05,02,19.80
2011,08,22,05,03,19.80
2011,08,22,05,04,19.80
2011,08,22,05,05,19.80
2011,08,22,05,06,19.80
2011,08,22,05,07,19.70
2011,08,22,05,08,19.70
2011,08,22,05,09,19.70
2011,08,22,05,10,19.70
2011,08,22,05,11,19.60
2011,08,22,05,12,19.60
2011,08,22,05,13,19.60
2011,08,22,05,14,19.60
2011,08,22,05,15,19.50
2011,08,22,05,16,19.40
2011,08,22,05,17,19.40
2011,08,22,05,18,19.30
2011,08,22,05,19,19.30
2011,08,22,05,20,19.20
2011,08,22,05,21,19.20
2011,08,22,05,22,19.20
2011,08,22,05,23,19.10
2011,08,22,05,24,19.10
2011,08,22,05,25,19.10
2011,08,22,05,26,19.00
2011,08,22,05,27,19.00
2011,08,22,05,28,18.90
2011,08,22,05,29,18.90
2011,08,22,05,30,18.80
2011,08,22,05,31,18.80
2011,08,22,05,32,18.80
2011,08,22,05,33,18.80
2011,08,22,05,34,18.70
2011,08,22,05,35,18.70
2011,08,22,05,36,18.70
2011,08,22,05,37,18.60
2011,08,22,05,38,18.60
2011,08,22,05,39,18.60
2011,08,22,05,40,18.60
2011,08,22,05,41,18.50
2011,08,22,05,42,18.50
2011,08,22,05,43,18.50
2011,08,22,05,44,18.50
2011,08,22,05,45,18.40
2011,08,22,05,46,18.40
2011,08,22,05,47,18.40
2011,08,22,05,48,18.40
2011,08,22,05,49,18.40
2011,08,22,05,50,18.40
2011,08,22,05,51,18.30
2011,08,22,05,52,18.30
2011,08,22,05,53,18.30
2011,08,22,05,54,18.30
2011,08,22,05,55,18.30
2011,08,22,05,56,18.30
2011,08,22,05,57,18.30
2011,08,22,05,58,18.30
2011,08,22,05,59,18.30
2011,08,22,06,00,18.20
2011,08,22,06,01,18.20
2011,08,22,06,02,18.20
2011,08,22,06,03,18.20
2011,08,22,06,04,18.10
2011,08,22,06,05,18.10
2011,08,22,06,06,18.00
2011,08,22,06,07,18.00
2011,08,22,06,08,17.90
2011,08,22,06,09,17.90
2011,08,22,06,10,17.80
2011,08,22,06,11,17.70
2011,08,22,06,12,17.70
2011,08,22,06,13,17.70
2011,08,22,06,14,17.70
2011,08,22,06,15,17.60
2011,08,22,06,16,17.60
2011,08,22,06,17,17.60
2011,08,22,06,18,17.50
2011,08,22,06,19,17.50
2011,08,22,06,20,17.50
2011,08,22,06,21,17.50
2011,08,22,06,22,17.40
2011,08,22,06,23,17.40
2011,08,22,06,24,17.40
2011,08,22,06,25,17.40
2011,08,22,06,26,17.30
2011,08,22,06,27,17.30
2011,08,22,06,28,17.30
2011,08,22,06,29,17.30
2011,08,22,06,30,17.30
2011,08,22,06,31,17.30
2011,08,22,06,32,17.30
2011,08,22,06,33,17.30
2011,08,22,06,34,17.30
2011,08,22,06,35,17.30
2011,08,22,06,36,17.30
2011,08,22,06,37,17.20
2011,08,22,06,38,17.20
2011,08,22,06,39,17.20
2011,08,22,06,40,17.20
2011,08,22,06,41,17.20
2011,08,22,06,42,17.20
2011,08,22,06,43,17.20
2011,08,22,06,44,17.20
2011,08,22,06,45,17.20
2011,08,22,06,46,17.20
2011,08,22,06,47,17.20
2011,08,22,06,48,17.20
2011,08,22,06,49,17.10
2011,08,22,06,50,17.10
2011,08,22,06,51,17.10
2011,08,22,06,52,17.10
2011,08,22,06,53,17.10
2011,08,22,06,54,17.10
2011,08,22,06,55,17.10
2011,08,22,06,56,17.10
2011,08,22,06,57,17.10
2011,08,22,06,58,17.10
2011,08,22,06,59,17.10
2011,08,22,07,00,17.00
2011,08,22,07,01,17.00
2011,08,22,07,02,17.00
2011,08,22,07,03,17.00
2011,08,22,07,04,17.00
2011,08,22,07,05,17.00
2011,08,22,07,06,16.90
2011,08,22,07,07,16.90
2011,08,22,07,08,16.90
2011,08,22,07,09,16.90
2011,08,22,07,10,16.90
2011,08,22,07,11,16.90
2011,08,22,07,12,16.90
2011,08,22,07,13,16.90
2011,08,22,07,14,16.90
2011,08,22,07,15,16.90
2011,08,22,07,16,16.90
2011,08,22,07,17,16.90
2011,08,22,07,18,16.90
2011,08,22,07,19,16.90
2011,08,22,07,20,16.90
2011,08,22,07,21,16.90
2011,08,22,07,22,16.90
2011,08,22,07,23,16.90
2011,08,22,07,24,16.90
2011,08,22,07,25,16.90
2011,08,22,07,26,16.90
2011,08,22,07,27,16.90
2011,08,22,07,28,16.90
2011,08,22,07,29,16.90
2011,08,22,07,30,16.90
2011,08,22,07,31,16.90
2011,08,22,07,32,16.90
2011,08,22,07,33,16.90
2011,08,22,07,34,16.90
2011,08,22,07,35,16.90
2011,08,22,07,36,16.90
2011,08,22,07,37,16.90
2011,08,22,07,38,16.90
2011,08,22,07,39,16.90
2011,08,22,07,40,16.90
2011,08,22,07,41,16.90
2011,08,22,07,42,16.90
2011,08,22,07,43,16.90
2011,08,22,07,44,16.90
2011,08,22,07,45,16.90
2011,08,22,07,46,16.90
2011,08,22,07,47,16.90
2011,08,22,07,48,16.90
2011,08,22,07,49,16.90
2011,08,22,07,50,16.90
2011,08,22,07,51,16.90
2011,08,22,07,52,16.90
2011,08,22,07,53,16.90
2011,08,22,07,54,16.90
2011,08,22,07,55,16.90
2011,08,22,07,56,16.90
2011,08,22,07,57,16.90
2011,08,22,07,58,16.90
2011,08,22,07,59,16.90
2011,08,22,08,00,16.90
2011,08,22,08,01,16.90
2011,08,22,08,02,16.90
2011,08,22,08,03,16.90
2011,08,22,08,04,16.90
2011,08,22,08,05,16.90
2011,08,22,08,06,16.90
2011,08,22,08,07,16.90
2011,08,22,08,08,16.90
2011,08,22,08,09,16.90
2011,08,22,08,10,16.90
2011,08,22,08,11,16.90
2011,08,22,08,12,16.90
2011,08,22,08,13,16.90
2011,08,22,08,14,16.90
2011,08,22,08,15,16.90
2011,08,22,08,16,16.90
2011,08,22,08,17,16.90
2011,08,22,08,18,16.90
2011,08,22,08,19,16.90
2011,08,22,08,20,16.90
2011,08,22,08,21,16.90
2011,08,22,08,22,16.90
2011,08,22,08,23,16.90
2011,08,22,08,24,16.90
2011,08,22,08,25,16.90
2011,08,22,08,26,16.90
2011,08,22,08,27,16.90
2011,08,22,08,28,16.90
2011,08,22,08,29,16.80
2011,08,22,08,30,16.80
2011,08,22,08,31,16.80
2011,08,22,08,32,16.80
2011,08,22,08,33,16.70
2011,08,22,08,34,16.70
2011,08,22,08,35,16.70
2011,08,22,08,36,16.70
2011,08,22,08,37,16.70
2011,08,22,08,38,16.60
2011,08,22,08,39,16.60
2011,08,22,08,40,16.60
2011,08,22,08,41,16.60
2011,08,22,08,42,16.60
2011,08,22,08,43,16.60
2011,08,22,08,44,16.60
2011,08,22,08,45,16.60
2011,08,22,08,46,16.50
2011,08,22,08,47,16.50
2011,08,22,08,48,16.50
2011,08,22,08,49,16.50
2011,08,22,08,50,16.50
2011,08,22,08,51,16.50
2011,08,22,08,52,16.50
2011,08,22,08,53,16.50
2011,08,22,08,54,16.50
2011,08,22,08,55,16.50
2011,08,22,08,56,16.50
2011,08,22,08,57,16.50
2011,08,22,08,58,16.50
2011,08,22,08,59,16.50
2011,08,22,09,00,16.50
2011,08,22,09,01,16.50
2011,08,22,09,02,16.50
2011,08,22,09,03,16.50
2011,08,22,09,04,16.50
2011,08,22,09,05,16.50
2011,08,22,09,06,16.50
2011,08,22,09,07,16.50
2011,08,22,09,08,16.50
2011,08,22,09,09,16.50
2011,08,22,09,10,16.50
2011,08,22,09,11,16.50
2011,08,22,09,12,16.50
2011,08,22,09,13,16.50
2011,08,22,09,14,16.50
2011,08,22,09,15,16.50
2011,08,22,09,16,16.50
2011,08,22,09,17,16.50
2011,08,22,09,18,16.40
2011,08,22,09,19,16.40
2011,08,22,09,20,16.40
2011,08,22,09,21,16.40
2011,08,22,09,22,16.40
2011,08,22,09,23,16.40
2011,08,22,09,24,16.40
2011,08,22,09,25,16.40
2011,08,22,09,26,16.40
2011,08,22,09,27,16.40
2011,08,22,09,28,16.40
2011,08,22,09,29,16.40
2011,08,22,09,30,16.40
2011,08,22,09,31,16.40
2011,08,22,09,32,16.40
2011,08,22,09,33,16.40
2011,08,22,09,34,16.40
2011,08,22,09,35,16.40
2011,08,22,09,36,16.40
2011,08,22,09,37,16.40
2011,08,22,09,38,16.40
2011,08,22,09,39,16.40
2011,08,22,09,40,16.40
2011,08,22,09,41,16.40
2011,08,22,09,42,16.50
2011,08,22,09,43,16.50
2011,08,22,09,44,16.50
2011,08,22,09,45,16.50
2011,08,22,09,46,16.50
2011,08,22,09,47,16.50
2011,08,22,09,48,16.50
2011,08,22,09,49,16.50
2011,08,22,09,50,16.50
2011,08,22,09,51,16.50
2011,08,22,09,52,16.50
2011,08,22,09,53,16.40
2011,08,22,09,54,16.40
2011,08,22,09,55,16.40
2011,08,22,09,56,16.40
2011,08,22,09,57,16.40
2011,08,22,09,58,16.40
2011,08,22,09,59,16.40
2011,08,22,10,00,16.40
2011,08,22,10,01,16.40
2011,08,22,10,02,16.40
2011,08,22,10,03,16.40
2011,08,22,10,04,16.40
2011,08,22,10,05,16.30
2011,08,22,10,06,16.30
2011,08,22,10,07,16.30
2011,08,22,10,08,16.30
2011,08,22,10,09,16.30
2011,08,22,10,10,16.30
2011,08,22,10,11,16.30
2011,08,22,10,12,16.30
2011,08,22,10,13,16.30
2011,08,22,10,14,16.30
2011,08,22,10,15,16.30
2011,08,22,10,16,16.30
2011,08,22,10,17,16.30
2011,08,22,10,18,16.30
2011,08,22,10,19,16.30
2011,08,22,10,20,16.30
2011,08,22,10,21,16.30
2011,08,22,10,22,16.30
2011,08,22,10,23,16.30
2011,08,22,10,24,16.30
2011,08,22,10,25,16.30
2011,08,22,10,26,16.30
2011,08,22,10,27,16.30
2011,08,22,10,28,16.30
2011,08,22,10,29,16.30
2011,08,22,10,30,16.30
2011,08,22,10,31,16.20
2011,08,22,10,32,16.20
2011,08,22,10,33,16.20
2011,08,22,10,34,16.20
2011,08,22,10,35,16.20
2011,08,22,10,36,16.20
2011,08,22,10,37,16.20
2011,08,22,10,38,16.20
2011,08,22,10,39,16.20
2011,08,22,10,40,16.20
2011,08,22,10,41,16.20
2011,08,22,10,42,16.20
2011,08,22,10,43,16.20
2011,08,22,10,44,16.20
2011,08,22,10,45,16.20
2011,08,22,10,46,16.20
2011,08,22,10,47,16.20
2011,08,22,10,48,16.20
2011,08,22,10,49,16.20
2011,08,22,10,50,16.20
2011,08,22,10,51,16.20
2011,08,22,10,52,16.20
2011,08,22,10,53,16.20
2011,08,22,10,54,16.20
2011,08,22,10,55,16.20
2011,08,22,10,56,16.20
2011,08,22,10,57,16.20
2011,08,22,10,58,16.20
2011,08,22,10,59,16.30
2011,08,22,11,00,16.20
2011,08,22,11,01,16.20
2011,08,22,11,02,16.20
2011,08,22,11,03,16.20
2011,08,22,11,04,16.20
2011,08,22,11,05,16.20
2011,08,22,11,06,16.20
2011,08,22,11,07,16.20
2011,08,22,11,08,16.20
2011,08,22,11,09,16.20
2011,08,22,11,10,16.20
2011,08,22,11,11,16.20
2011,08,22,11,12,16.20
2011,08,22,11,13,16.20
2011,08,22,11,14,16.20
2011,08,22,11,15,16.20
2011,08,22,11,16,16.20
2011,08,22,11,17,16.20
2011,08,22,11,18,16.30
2011,08,22,11,19,16.30
2011,08,22,11,20,16.30
2011,08,22,11,21,16.30
2011,08,22,11,22,16.30
2011,08,22,11,23,16.30
2011,08,22,11,24,16.30
2011,08,22,11,25,16.30
2011,08,22,11,26,16.30
2011,08,22,11,27,16.40
2011,08,22,11,28,16.40
2011,08,22,11,29,16.40
2011,08,22,11,30,16.40
2011,08,22,11,31,16.40
2011,08,22,11,32,16.40
2011,08,22,11,33,16.40
2011,08,22,11,34,16.50
2011,08,22,11,35,16.50
2011,08,22,11,36,16.60
2011,08,22,11,37,16.60
2011,08,22,11,38,16.60
2011,08,22,11,39,16.60
2011,08,22,11,40,16.70
2011,08,22,11,41,16.70
2011,08,22,11,42,16.70
2011,08,22,11,43,16.80
2011,08,22,11,44,16.80
2011,08,22,11,45,16.80
2011,08,22,11,46,16.80
2011,08,22,11,47,16.90
2011,08,22,11,48,16.90
2011,08,22,11,49,16.90
2011,08,22,11,50,16.90
2011,08,22,11,51,16.90
2011,08,22,11,52,16.90
2011,08,22,11,53,16.90
2011,08,22,11,54,16.90
2011,08,22,11,55,16.90
2011,08,22,11,56,16.90
2011,08,22,11,57,16.90
2011,08,22,11,58,17.00
2011,08,22,11,59,17.00
2011,08,22,12,00,17.00
2011,08,22,12,01,17.10
2011,08,22,12,02,17.10
2011,08,22,12,03,17.10
2011,08,22,12,04,17.20
2011,08,22,12,05,17.20
2011,08,22,12,06,17.20
2011,08,22,12,07,17.30
2011,08,22,12,08,17.30
2011,08,22,12,09,17.40
2011,08,22,12,10,17.50
2011,08,22,12,11,17.60
2011,08,22,12,12,17.70
2011,08,22,12,13,17.80
2011,08,22,12,14,17.90
2011,08,22,12,15,18.00
2011,08,22,12,16,18.10
2011,08,22,12,17,18.20
2011,08,22,12,18,18.30
2011,08,22,12,19,18.40
2011,08,22,12,20,18.50
2011,08,22,12,21,18.50
2011,08,22,12,22,18.60
2011,08,22,12,23,18.70
2011,08,22,12,24,18.70
2011,08,22,12,25,18.80
2011,08,22,12,26,18.90
2011,08,22,12,27,18.90
2011,08,22,12,28,18.90
2011,08,22,12,29,18.90
2011,08,22,12,30,18.90
2011,08,22,12,31,18.90
2011,08,22,12,32,18.80
2011,08,22,12,33,18.80
2011,08,22,12,34,18.80
2011,08,22,12,35,18.80
2011,08,22,12,36,18.70
2011,08,22,12,37,18.70
2011,08,22,12,38,18.60
2011,08,22,12,39,18.60
2011,08,22,12,40,18.50
2011,08,22,12,41,18.50
2011,08,22,12,42,18.40
2011,08,22,12,43,18.30
2011,08,22,12,44,18.30
2011,08,22,12,45,18.20
2011,08,22,12,46,18.20
2011,08,22,12,47,18.20
2011,08,22,12,48,18.20
2011,08,22,12,49,18.20
2011,08,22,12,50,18.20
2011,08,22,12,51,18.20
2011,08,22,12,52,18.30
2011,08,22,12,53,18.30
2011,08,22,12,54,18.30
2011,08,22,12,55,18.30
2011,08,22,12,56,18.40
2011,08,22,12,57,18.40
2011,08,22,12,58,18.40
2011,08,22,12,59,18.40
2011,08,22,13,00,18.40
2011,08,22,13,01,18.40
2011,08,22,13,02,18.50
2011,08,22,13,03,18.40
2011,08,22,13,04,18.40
2011,08,22,13,05,18.40
2011,08,22,13,06,18.40
2011,08,22,13,07,18.30
2011,08,22,13,08,18.30
2011,08,22,13,09,18.30
2011,08,22,13,10,18.30
2011,08,22,13,11,18.30
2011,08,22,13,12,18.30
2011,08,22,13,13,18.20
2011,08,22,13,14,18.20
2011,08,22,13,15,18.20
2011,08,22,13,16,18.10
2011,08,22,13,17,18.10
2011,08,22,13,18,18.10
2011,08,22,13,19,18.10
2011,08,22,13,20,18.10
2011,08,22,13,21,18.10
2011,08,22,13,22,18.10
2011,08,22,13,23,18.10
2011,08,22,13,24,18.10
2011,08,22,13,25,18.20
2011,08,22,13,26,18.20
2011,08,22,13,27,18.20
2011,08,22,13,28,18.20
2011,08,22,13,29,18.20
2011,08,22,13,30,18.20
2011,08,22,13,31,18.20
2011,08,22,13,32,18.20
2011,08,22,13,33,18.20
2011,08,22,13,34,18.20
2011,08,22,13,35,18.20
2011,08,22,13,36,18.20
2011,08,22,13,37,18.20
2011,08,22,13,38,18.20
2011,08,22,13,39,18.20
2011,08,22,13,40,18.10
2011,08,22,13,41,18.10
2011,08,22,13,42,18.10
2011,08,22,13,43,18.10
2011,08,22,13,44,18.10
2011,08,22,13,45,18.10
2011,08,22,13,46,18.10
2011,08,22,13,47,18.10
2011,08,22,13,48,18.10
2011,08,22,13,49,18.10
2011,08,22,13,50,18.10
2011,08,22,13,51,18.10
2011,08,22,13,52,18.20
2011,08,22,13,53,18.20
2011,08,22,13,54,18.20
2011,08,22,13,55,18.20
2011,08,22,13,56,18.20
2011,08,22,13,57,18.20
2011,08,22,13,58,18.30
2011,08,22,13,59,18.30
2011,08,22,14,00,18.30
2011,08,22,14,01,18.30
2011,08,22,14,02,18.30
2011,08,22,14,03,18.30
2011,08,22,14,04,18.30
2011,08,22,14,05,18.30
2011,08,22,14,06,18.30
2011,08,22,14,07,18.40
2011,08,22,14,08,18.40
2011,08,22,14,09,18.40
2011,08,22,14,10,18.40
2011,08,22,14,11,18.50
2011,08,22,14,12,18.50
2011,08,22,14,13,18.50
2011,08,22,14,14,18.50
2011,08,22,14,15,18.50
2011,08,22,14,16,18.40
2011,08,22,14,17,18.40
2011,08,22,14,18,18.40
2011,08,22,14,19,18.40
2011,08,22,14,20,18.40
2011,08,22,14,21,18.40
2011,08,22,14,22,18.40
2011,08,22,14,23,18.40
2011,08,22,14,24,18.40
2011,08,22,14,25,18.40
2011,08,22,14,26,18.40
2011,08,22,14,27,18.40
2011,08,22,14,28,18.40
2011,08,22,14,29,18.40
2011,08,22,14,30,18.40
2011,08,22,14,31,18.40
2011,08,22,14,32,18.50
2011,08,22,14,33,18.50
2011,08,22,14,34,18.60
2011,08,22,14,35,18.60
2011,08,22,14,36,18.60
2011,08,22,14,37,18.60
2011,08,22,14,38,18.60
2011,08,22,14,39,18.60
2011,08,22,14,40,18.70
2011,08,22,14,41,18.70
2011,08,22,14,42,18.70
2011,08,22,14,43,18.70
2011,08,22,14,44,18.70
2011,08,22,14,45,18.70
2011,08,22,14,46,18.80
2011,08,22,14,47,18.80
2011,08,22,14,48,18.80
2011,08,22,14,49,18.80
2011,08,22,14,50,18.90
2011,08,22,14,51,18.90
2011,08,22,14,52,18.90
2011,08,22,14,53,18.90
2011,08,22,14,54,18.90
2011,08,22,14,55,19.00
2011,08,22,14,56,19.00
2011,08,22,14,57,19.10
2011,08,22,14,58,19.10
2011,08,22,14,59,19.10
2011,08,22,15,00,19.10
2011,08,22,15,01,19.10
2011,08,22,15,02,19.20
2011,08,22,15,03,19.20
2011,08,22,15,04,19.10
2011,08,22,15,05,19.10
2011,08,22,15,06,19.10
2011,08,22,15,07,19.20
2011,08,22,15,08,19.20
2011,08,22,15,09,19.20
2011,08,22,15,10,19.20
2011,08,22,15,11,19.20
2011,08,22,15,12,19.20
2011,08,22,15,13,19.30
2011,08,22,15,14,19.30
2011,08,22,15,15,19.30
2011,08,22,15,16,19.30
2011,08,22,15,17,19.30
2011,08,22,15,18,19.40
2011,08,22,15,19,19.40
2011,08,22,15,20,19.40
2011,08,22,15,21,19.50
2011,08,22,15,22,19.50
2011,08,22,15,23,19.50
2011,08,22,15,24,19.50
2011,08,22,15,25,19.50
2011,08,22,15,26,19.50
2011,08,22,15,27,19.60
2011,08,22,15,28,19.60
2011,08,22,15,29,19.50
2011,08,22,15,30,19.50
2011,08,22,15,31,19.50
2011,08,22,15,32,19.50
2011,08,22,15,33,19.50
2011,08,22,15,34,19.60
2011,08,22,15,35,19.60
2011,08,22,15,36,19.60
2011,08,22,15,37,19.60
2011,08,22,15,38,19.60
2011,08,22,15,39,19.60
2011,08,22,15,40,19.60
2011,08,22,15,41,19.60
2011,08,22,15,42,19.70
2011,08,22,15,43,19.70
2011,08,22,15,44,19.70
2011,08,22,15,45,19.70
2011,08,22,15,46,19.70
2011,08,22,15,47,19.80
2011,08,22,15,48,19.80
2011,08,22,15,49,19.80
2011,08,22,15,50,19.90
2011,08,22,15,51,19.90
2011,08,22,15,52,19.90
2011,08,22,15,53,19.90
2011,08,22,15,54,20.00
2011,08,22,15,55,20.00
2011,08,22,15,56,20.00
2011,08,22,15,57,20.00
2011,08,22,15,58,20.00
2011,08,22,15,59,20.00
2011,08,22,16,00,19.90
2011,08,22,16,01,19.90
2011,08,22,16,02,19.90
2011,08,22,16,03,19.80
2011,08,22,16,04,19.80
2011,08,22,16,05,19.80
2011,08,22,16,06,19.70
2011,08,22,16,07,19.70
2011,08,22,16,08,19.70
2011,08,22,16,09,19.70
2011,08,22,16,10,19.70
2011,08,22,16,11,19.60
2011,08,22,16,12,19.60
2011,08,22,16,13,19.60
2011,08,22,16,14,19.60
2011,08,22,16,15,19.60
2011,08,22,16,16,19.60
2011,08,22,16,17,19.70
2011,08,22,16,18,19.70
2011,08,22,16,19,19.70
2011,08,22,16,20,19.70
2011,08,22,16,21,19.80
2011,08,22,16,22,19.80
2011,08,22,16,23,19.90
2011,08,22,16,24,19.90
2011,08,22,16,25,20.00
2011,08,22,16,26,20.10
2011,08,22,16,27,20.10
2011,08,22,16,28,20.10
2011,08,22,16,29,20.20
2011,08,22,16,30,20.30
2011,08,22,16,31,20.30
2011,08,22,16,32,20.40
2011,08,22,16,33,20.50
2011,08,22,16,34,20.50
2011,08,22,16,35,20.60
2011,08,22,16,36,20.60
2011,08,22,16,37,20.70
2011,08,22,16,38,20.70
2011,08,22,16,39,20.70
2011,08,22,16,40,20.70
2011,08,22,16,41,20.70
2011,08,22,16,42,20.70
2011,08,22,16,43,20.70
2011,08,22,16,44,20.70
2011,08,22,16,45,20.70
2011,08,22,16,46,20.80
2011,08,22,16,47,20.80
2011,08,22,16,48,20.80
2011,08,22,16,49,20.70
2011,08,22,16,50,20.70
2011,08,22,16,51,20.70
2011,08,22,16,52,20.70
2011,08,22,16,53,20.70
2011,08,22,16,54,20.70
2011,08,22,16,55,20.70
2011,08,22,16,56,20.70
2011,08,22,16,57,20.70
2011,08,22,16,58,20.70
2011,08,22,16,59,20.70
2011,08,22,17,00,20.70
2011,08,22,17,01,20.70
2011,08,22,17,02,20.80
2011,08,22,17,03,20.80
2011,08,22,17,04,20.80
2011,08,22,17,05,20.80
2011,08,22,17,06,20.80
2011,08,22,17,07,20.80
2011,08,22,17,08,20.80
2011,08,22,17,09,20.80
2011,08,22,17,10,20.80
2011,08,22,17,11,20.80
2011,08,22,17,12,20.90
2011,08,22,17,13,20.90
2011,08,22,17,14,20.80
2011,08,22,17,15,20.80
2011,08,22,17,16,20.80
2011,08,22,17,17,20.80
2011,08,22,17,18,20.80
2011,08,22,17,19,20.80